Wetterdaten: Donnerstag, 01.06.2006
Datum Zeit Temp. I. Temp. A. Feuchte A. Luftdruck Regen Wind
01.06.2006 00:01 20,2 C 6,2 C 90 % 1013 hPa 0,0 l/m 7,8 km/h (2 Bft)
01.06.2006 00:04 20,2 C 6,3 C 91 % 1013 hPa 0,3 l/m 6,5 km/h (2 Bft)
01.06.2006 00:07 20,2 C 6,3 C 91 % 1013 hPa 0,0 l/m 6,3 km/h (2 Bft)
01.06.2006 00:10 20,2 C 6,4 C 91 % 1013 hPa 0,0 l/m 0,6 km/h (0 Bft)
01.06.2006 00:13 20,2 C 6,4 C 91 % 1013 hPa 0,0 l/m 10,8 km/h (2 Bft)
01.06.2006 00:16 20,2 C 6,4 C 91 % 1013 hPa 0,3 l/m 6,0 km/h (2 Bft)
01.06.2006 00:19 20,2 C 6,4 C 91 % 1013 hPa 0,0 l/m 12,7 km/h (3 Bft)
01.06.2006 00:22 20,2 C 6,4 C 91 % 1013 hPa 0,0 l/m 12,2 km/h (2 Bft)
01.06.2006 00:25 20,2 C 6,4 C 91 % 1013 hPa 0,0 l/m 12,4 km/h (3 Bft)
01.06.2006 00:28 20,2 C 6,4 C 91 % 1013 hPa 0,0 l/m 10,8 km/h (2 Bft)
01.06.2006 00:31 20,2 C 6,4 C 91 % 1012 hPa 0,0 l/m 10,4 km/h (2 Bft)
01.06.2006 00:34 20,2 C 6,4 C 91 % 1013 hPa 0,0 l/m 11,0 km/h (2 Bft)
01.06.2006 00:37 20,2 C 6,4 C 91 % 1013 hPa 0,0 l/m 13,9 km/h (3 Bft)
01.06.2006 00:40 20,2 C 6,4 C 91 % 1013 hPa 0,0 l/m 16,6 km/h (3 Bft)
01.06.2006 00:43 20,2 C 6,3 C 91 % 1013 hPa 0,0 l/m 15,8 km/h (3 Bft)
01.06.2006 00:46 20,2 C 6,3 C 92 % 1013 hPa 0,0 l/m 18,1 km/h (3 Bft)
01.06.2006 00:49 20,2 C 6,4 C 92 % 1013 hPa 0,3 l/m 18,1 km/h (3 Bft)
01.06.2006 00:52 20,1 C 6,3 C 92 % 1013 hPa 0,0 l/m 14,0 km/h (3 Bft)
01.06.2006 00:55 20,1 C 6,3 C 93 % 1013 hPa 0,0 l/m 10,4 km/h (2 Bft)
01.06.2006 00:58 20,2 C 6,3 C 93 % 1013 hPa 0,3 l/m 9,6 km/h (2 Bft)
01.06.2006 01:01 20,1 C 6,2 C 93 % 1013 hPa 0,0 l/m 6,1 km/h (2 Bft)
01.06.2006 01:04 20,2 C 6,3 C 93 % 1013 hPa 0,0 l/m 14,8 km/h (3 Bft)
01.06.2006 01:07 20,1 C 6,3 C 93 % 1013 hPa 0,0 l/m 17,5 km/h (3 Bft)
01.06.2006 01:10 20,2 C 6,3 C 93 % 1013 hPa 0,0 l/m 13,2 km/h (3 Bft)
01.06.2006 01:13 20,2 C 6,3 C 93 % 1013 hPa 0,0 l/m 15,4 km/h (3 Bft)
01.06.2006 01:16 20,1 C 6,3 C 93 % 1013 hPa 0,3 l/m 19,3 km/h (3 Bft)
01.06.2006 01:19 20,2 C 6,3 C 93 % 1013 hPa 0,0 l/m 17,3 km/h (3 Bft)
01.06.2006 01:22 20,1 C 6,3 C 93 % 1012 hPa 0,0 l/m 18,4 km/h (3 Bft)
01.06.2006 01:25 20,1 C 6,3 C 93 % 1012 hPa 0,0 l/m 17,1 km/h (3 Bft)
01.06.2006 01:28 20,1 C 6,3 C 94 % 1012 hPa 0,0 l/m 17,8 km/h (3 Bft)
01.06.2006 01:31 20,2 C 6,3 C 94 % 1012 hPa 0,3 l/m 14,0 km/h (3 Bft)
01.06.2006 01:34 20,1 C 6,3 C 94 % 1012 hPa 0,0 l/m 13,3 km/h (3 Bft)
01.06.2006 01:37 20,1 C 6,4 C 93 % 1012 hPa 0,0 l/m 18,9 km/h (3 Bft)
01.06.2006 01:40 20,1 C 6,4 C 93 % 1012 hPa 0,3 l/m 18,9 km/h (3 Bft)
01.06.2006 01:43 20,1 C 6,4 C 93 % 1012 hPa 0,0 l/m 14,0 km/h (3 Bft)
01.06.2006 01:46 20,1 C 6,4 C 93 % 1012 hPa 0,0 l/m 13,9 km/h (3 Bft)
01.06.2006 01:49 20,1 C 6,4 C 93 % 1012 hPa 0,0 l/m 16,0 km/h (3 Bft)
01.06.2006 01:52 20,1 C 6,4 C 93 % 1012 hPa 0,0 l/m 17,8 km/h (3 Bft)
01.06.2006 01:55 20,1 C 6,4 C 94 % 1012 hPa 0,0 l/m 13,5 km/h (3 Bft)
01.06.2006 01:58 20,1 C 6,4 C 94 % 1012 hPa 0,0 l/m 14,9 km/h (3 Bft)
01.06.2006 02:01 20,1 C 6,4 C 94 % 1012 hPa 0,0 l/m 12,9 km/h (3 Bft)
01.06.2006 02:04 20,1 C 6,4 C 94 % 1012 hPa 0,3 l/m 15,1 km/h (3 Bft)
01.06.2006 02:07 20,1 C 6,4 C 94 % 1012 hPa 0,0 l/m 13,5 km/h (3 Bft)
01.06.2006 02:10 20,1 C 6,4 C 94 % 1012 hPa 0,0 l/m 19,5 km/h (3 Bft)
01.06.2006 02:13 20,1 C 6,4 C 94 % 1012 hPa 0,0 l/m 15,9 km/h (3 Bft)
01.06.2006 02:16 20,1 C 6,4 C 94 % 1012 hPa 0,0 l/m 13,9 km/h (3 Bft)
01.06.2006 02:19 20,1 C 6,4 C 94 % 1012 hPa 0,0 l/m 15,1 km/h (3 Bft)
01.06.2006 02:22 20,1 C 6,4 C 94 % 1012 hPa 0,0 l/m 13,5 km/h (3 Bft)
01.06.2006 02:25 20,1 C 6,4 C 94 % 1012 hPa 0,0 l/m 15,6 km/h (3 Bft)
01.06.2006 02:28 20,1 C 6,5 C 94 % 1012 hPa 0,0 l/m 16,4 km/h (3 Bft)
01.06.2006 02:31 20,1 C 6,5 C 94 % 1012 hPa 0,3 l/m 20,5 km/h (4 Bft)
01.06.2006 02:34 20,1 C 6,5 C 94 % 1012 hPa 0,0 l/m 15,3 km/h (3 Bft)
01.06.2006 02:37 20,1 C 6,5 C 94 % 1012 hPa 0,0 l/m 12,5 km/h (3 Bft)
01.06.2006 02:40 20,1 C 6,5 C 94 % 1012 hPa 0,0 l/m 13,1 km/h (3 Bft)
01.06.2006 02:43 20,1 C 6,5 C 94 % 1012 hPa 0,0 l/m 16,3 km/h (3 Bft)
01.06.2006 02:46 20,1 C 6,5 C 94 % 1012 hPa 0,0 l/m 16,3 km/h (3 Bft)
01.06.2006 02:49 20,2 C 6,5 C 94 % 1012 hPa 0,0 l/m 20,1 km/h (4 Bft)
01.06.2006 02:52 20,1 C 6,5 C 94 % 1012 hPa 0,0 l/m 15,1 km/h (3 Bft)
01.06.2006 02:55 20,1 C 6,5 C 94 % 1012 hPa 0,0 l/m 18,9 km/h (3 Bft)
01.06.2006 02:58 20,1 C 6,5 C 94 % 1012 hPa 0,0 l/m 15,6 km/h (3 Bft)
01.06.2006 03:01 20,2 C 6,5 C 94 % 1012 hPa 0,0 l/m 13,3 km/h (3 Bft)
01.06.2006 03:04 20,1 C 6,5 C 94 % 1012 hPa 0,0 l/m 14,7 km/h (3 Bft)
01.06.2006 03:07 20,1 C 6,6 C 94 % 1012 hPa 0,0 l/m 13,5 km/h (3 Bft)
01.06.2006 03:10 20,1 C 6,6 C 94 % 1012 hPa 0,0 l/m 15,3 km/h (3 Bft)
01.06.2006 03:13 20,1 C 6,6 C 94 % 1012 hPa 0,0 l/m 13,9 km/h (3 Bft)
01.06.2006 03:16 20,1 C 6,6 C 94 % 1012 hPa 0,0 l/m 17,1 km/h (3 Bft)
01.06.2006 03:19 20,1 C 6,6 C 94 % 1012 hPa 0,0 l/m 17,1 km/h (3 Bft)
01.06.2006 03:22 20,1 C 6,6 C 94 % 1012 hPa 0,0 l/m 18,0 km/h (3 Bft)
01.06.2006 03:26 20,1 C 6,6 C 94 % 1012 hPa 0,0 l/m 19,5 km/h (3 Bft)
01.06.2006 03:29 20,1 C 6,6 C 93 % 1012 hPa 0,0 l/m 20,2 km/h (4 Bft)
01.06.2006 03:32 20,1 C 6,6 C 94 % 1012 hPa 0,0 l/m 16,3 km/h (3 Bft)
01.06.2006 03:35 20,1 C 6,6 C 94 % 1012 hPa 0,0 l/m 14,1 km/h (3 Bft)
01.06.2006 03:38 20,1 C 6,6 C 94 % 1012 hPa 1,4 l/m 14,3 km/h (3 Bft)
01.06.2006 03:41 20,1 C 6,6 C 94 % 1012 hPa 0,0 l/m 16,0 km/h (3 Bft)
01.06.2006 03:44 20,1 C 6,6 C 94 % 1012 hPa 0,0 l/m 13,8 km/h (3 Bft)
01.06.2006 03:47 20,1 C 6,6 C 94 % 1012 hPa 0,0 l/m 16,7 km/h (3 Bft)
01.06.2006 03:50 20,1 C 6,7 C 94 % 1012 hPa 0,0 l/m 19,6 km/h (3 Bft)
01.06.2006 03:52 20,1 C 6,7 C 93 % 1012 hPa 0,0 l/m 19,6 km/h (3 Bft)
01.06.2006 03:55 20,1 C 6,7 C 93 % 1012 hPa 0,0 l/m 20,3 km/h (4 Bft)
01.06.2006 03:58 20,1 C 6,7 C 93 % 1012 hPa 0,0 l/m 17,6 km/h (3 Bft)
01.06.2006 04:01 20,1 C 6,7 C 94 % 1012 hPa 0,0 l/m 16,2 km/h (3 Bft)
01.06.2006 04:04 20,1 C 6,7 C 94 % 1012 hPa 0,0 l/m 14,6 km/h (3 Bft)
01.06.2006 04:07 20,1 C 6,7 C 94 % 1012 hPa 0,0 l/m 13,2 km/h (3 Bft)
01.06.2006 04:10 20,1 C 6,7 C 94 % 1012 hPa 0,0 l/m 16,9 km/h (3 Bft)
01.06.2006 04:13 20,1 C 6,8 C 93 % 1012 hPa 0,0 l/m 19,7 km/h (3 Bft)
01.06.2006 04:16 20,1 C 6,8 C 93 % 1012 hPa 0,0 l/m 18,2 km/h (3 Bft)
01.06.2006 04:19 20,1 C 6,8 C 93 % 1013 hPa 0,0 l/m 16,1 km/h (3 Bft)
01.06.2006 04:22 20,0 C 6,8 C 93 % 1013 hPa 0,0 l/m 13,3 km/h (3 Bft)
01.06.2006 04:25 20,1 C 6,8 C 93 % 1013 hPa 0,0 l/m 19,9 km/h (4 Bft)
01.06.2006 04:28 20,1 C 6,8 C 93 % 1013 hPa 0,0 l/m 15,0 km/h (3 Bft)
01.06.2006 04:31 20,0 C 6,8 C 93 % 1013 hPa 0,0 l/m 13,7 km/h (3 Bft)
01.06.2006 04:34 20,1 C 6,8 C 93 % 1013 hPa 0,0 l/m 13,7 km/h (3 Bft)
01.06.2006 04:37 20,1 C 6,7 C 93 % 1013 hPa 0,0 l/m 14,4 km/h (3 Bft)
01.06.2006 04:40 20,0 C 6,7 C 93 % 1013 hPa 0,0 l/m 13,5 km/h (3 Bft)
01.06.2006 04:43 20,0 C 6,8 C 93 % 1013 hPa 0,0 l/m 14,8 km/h (3 Bft)
01.06.2006 04:46 20,0 C 6,8 C 93 % 1013 hPa 0,3 l/m 13,7 km/h (3 Bft)
01.06.2006 04:49 20,0 C 6,8 C 93 % 1013 hPa 0,0 l/m 12,7 km/h (3 Bft)
01.06.2006 04:52 20,0 C 6,8 C 93 % 1013 hPa 0,0 l/m 15,7 km/h (3 Bft)
01.06.2006 04:55 20,0 C 6,8 C 93 % 1013 hPa 0,0 l/m 13,8 km/h (3 Bft)
01.06.2006 04:58 20,0 C 6,8 C 93 % 1013 hPa 0,0 l/m 10,1 km/h (2 Bft)
01.06.2006 05:01 20,0 C 6,8 C 94 % 1013 hPa 0,0 l/m 9,2 km/h (2 Bft)
01.06.2006 05:04 20,0 C 6,8 C 94 % 1013 hPa 0,0 l/m 13,5 km/h (3 Bft)
01.06.2006 05:07 20,0 C 6,8 C 93 % 1013 hPa 0,0 l/m 14,6 km/h (3 Bft)
01.06.2006 05:10 20,0 C 6,8 C 93 % 1013 hPa 0,0 l/m 12,1 km/h (2 Bft)
01.06.2006 05:13 20,0 C 6,8 C 93 % 1013 hPa 0,0 l/m 10,0 km/h (2 Bft)
01.06.2006 05:16 20,0 C 6,8 C 93 % 1013 hPa 0,0 l/m 10,1 km/h (2 Bft)
01.06.2006 05:19 20,0 C 6,8 C 93 % 1013 hPa 0,0 l/m 15,7 km/h (3 Bft)
01.06.2006 05:22 20,0 C 6,8 C 93 % 1013 hPa 0,0 l/m 11,6 km/h (2 Bft)
01.06.2006 05:25 20,0 C 6,8 C 94 % 1013 hPa 0,7 l/m 11,6 km/h (2 Bft)
01.06.2006 05:28 20,1 C 6,8 C 94 % 1013 hPa 0,0 l/m 8,8 km/h (2 Bft)
01.06.2006 05:31 20,2 C 6,8 C 94 % 1013 hPa 0,0 l/m 10,0 km/h (2 Bft)
01.06.2006 05:34 20,2 C 6,8 C 94 % 1013 hPa 0,0 l/m 12,1 km/h (2 Bft)
01.06.2006 05:37 20,2 C 6,8 C 94 % 1013 hPa 0,0 l/m 10,6 km/h (2 Bft)
01.06.2006 05:40 20,2 C 6,7 C 94 % 1013 hPa 0,0 l/m 10,5 km/h (2 Bft)
01.06.2006 05:43 20,2 C 6,7 C 94 % 1013 hPa 0,0 l/m 8,1 km/h (2 Bft)
01.06.2006 05:46 20,3 C 6,7 C 94 % 1013 hPa 0,0 l/m 7,6 km/h (2 Bft)
01.06.2006 05:49 20,3 C 6,8 C 94 % 1013 hPa 0,0 l/m 6,1 km/h (2 Bft)
01.06.2006 05:52 20,2 C 6,7 C 94 % 1013 hPa 0,0 l/m 4,3 km/h (1 Bft)
01.06.2006 05:55 19,4 C 6,7 C 94 % 1013 hPa 0,0 l/m 3,0 km/h (1 Bft)
01.06.2006 05:58 19,0 C 6,7 C 94 % 1013 hPa 0,7 l/m 7,8 km/h (2 Bft)
01.06.2006 06:01 18,8 C 6,9 C 95 % 1013 hPa 0,0 l/m 9,6 km/h (2 Bft)
01.06.2006 06:04 18,6 C 7,1 C 95 % 1013 hPa 0,3 l/m 8,1 km/h (2 Bft)
01.06.2006 06:07 18,5 C 7,1 C 93 % 1013 hPa 0,0 l/m 11,5 km/h (2 Bft)
01.06.2006 06:10 18,5 C 7,0 C 92 % 1013 hPa 0,0 l/m 13,6 km/h (3 Bft)
01.06.2006 06:13 18,5 C 7,0 C 92 % 1013 hPa 0,0 l/m 13,6 km/h (3 Bft)
01.06.2006 06:23 19,2 C 6,8 C 93 % 1013 hPa 0,0 l/m 12,6 km/h (3 Bft)
01.06.2006 06:26 19,4 C 6,8 C 93 % 1012 hPa 0,0 l/m 11,2 km/h (2 Bft)
01.06.2006 06:29 19,8 C 6,8 C 94 % 1013 hPa 0,0 l/m 12,5 km/h (3 Bft)
01.06.2006 06:32 20,0 C 6,8 C 94 % 1013 hPa 0,0 l/m 15,9 km/h (3 Bft)
01.06.2006 06:35 20,0 C 6,7 C 94 % 1013 hPa 0,0 l/m 12,2 km/h (2 Bft)
01.06.2006 06:38 20,1 C 6,8 C 94 % 1013 hPa 0,0 l/m 11,5 km/h (2 Bft)
01.06.2006 06:41 20,2 C 6,8 C 94 % 1013 hPa 0,0 l/m 15,6 km/h (3 Bft)
01.06.2006 06:44 20,4 C 6,8 C 94 % 1013 hPa 0,0 l/m 11,2 km/h (2 Bft)
01.06.2006 06:47 20,5 C 6,8 C 93 % 1013 hPa 0,0 l/m 17,2 km/h (3 Bft)
01.06.2006 06:50 20,5 C 6,8 C 93 % 1013 hPa 0,0 l/m 25,0 km/h (4 Bft)
01.06.2006 06:53 20,5 C 6,8 C 92 % 1013 hPa 0,3 l/m 16,8 km/h (3 Bft)
01.06.2006 06:56 20,5 C 6,8 C 93 % 1013 hPa 0,0 l/m 12,5 km/h (3 Bft)
01.06.2006 06:59 20,4 C 6,8 C 93 % 1013 hPa 0,0 l/m 12,9 km/h (3 Bft)
01.06.2006 07:02 20,4 C 6,8 C 93 % 1013 hPa 0,0 l/m 16,5 km/h (3 Bft)
01.06.2006 07:05 20,4 C 6,8 C 93 % 1013 hPa 0,0 l/m 15,1 km/h (3 Bft)
01.06.2006 07:08 20,4 C 6,8 C 92 % 1013 hPa 0,0 l/m 12,5 km/h (3 Bft)
01.06.2006 07:11 20,4 C 6,8 C 92 % 1013 hPa 0,0 l/m 17,1 km/h (3 Bft)
01.06.2006 07:14 20,4 C 6,8 C 92 % 1013 hPa 0,0 l/m 18,7 km/h (3 Bft)
01.06.2006 07:17 20,4 C 6,8 C 92 % 1013 hPa 0,0 l/m 17,3 km/h (3 Bft)
01.06.2006 07:20 20,5 C 6,8 C 92 % 1013 hPa 0,0 l/m 16,0 km/h (3 Bft)
01.06.2006 07:23 20,5 C 6,8 C 92 % 1013 hPa 0,0 l/m 14,8 km/h (3 Bft)
01.06.2006 07:26 20,5 C 6,8 C 92 % 1013 hPa 0,0 l/m 19,8 km/h (3 Bft)
01.06.2006 07:29 20,4 C 6,8 C 92 % 1013 hPa 0,0 l/m 19,6 km/h (3 Bft)
01.06.2006 07:32 20,4 C 6,8 C 92 % 1013 hPa 0,0 l/m 20,6 km/h (4 Bft)
01.06.2006 07:35 20,5 C 6,8 C 93 % 1013 hPa 0,0 l/m 19,0 km/h (3 Bft)
01.06.2006 07:38 20,5 C 6,7 C 92 % 1013 hPa 0,0 l/m 19,0 km/h (3 Bft)
01.06.2006 07:41 20,5 C 6,8 C 92 % 1013 hPa 0,0 l/m 18,6 km/h (3 Bft)
01.06.2006 07:44 20,5 C 6,7 C 92 % 1013 hPa 0,0 l/m 15,5 km/h (3 Bft)
01.06.2006 07:47 20,5 C 6,7 C 92 % 1013 hPa 0,0 l/m 20,0 km/h (4 Bft)
01.06.2006 07:50 20,5 C 6,8 C 92 % 1013 hPa 0,0 l/m 19,6 km/h (3 Bft)
01.06.2006 07:53 20,5 C 6,8 C 92 % 1013 hPa 0,0 l/m 22,5 km/h (4 Bft)
01.06.2006 07:56 20,5 C 6,8 C 93 % 1013 hPa 0,0 l/m 17,5 km/h (3 Bft)
01.06.2006 07:59 20,5 C 6,9 C 93 % 1013 hPa 0,0 l/m 16,0 km/h (3 Bft)
01.06.2006 08:02 20,5 C 6,8 C 93 % 1013 hPa 0,0 l/m 20,3 km/h (4 Bft)
01.06.2006 08:05 20,5 C 6,9 C 94 % 1013 hPa 0,0 l/m 15,8 km/h (3 Bft)
01.06.2006 08:08 20,5 C 6,9 C 94 % 1013 hPa 0,0 l/m 17,8 km/h (3 Bft)
01.06.2006 08:11 20,5 C 6,9 C 94 % 1013 hPa 0,0 l/m 16,0 km/h (3 Bft)
01.06.2006 08:14 20,5 C 6,9 C 94 % 1013 hPa 0,0 l/m 16,6 km/h (3 Bft)
01.06.2006 08:17 20,5 C 6,9 C 94 % 1013 hPa 0,0 l/m 16,6 km/h (3 Bft)
01.06.2006 08:20 20,6 C 6,9 C 94 % 1013 hPa 0,0 l/m 17,1 km/h (3 Bft)
01.06.2006 08:23 20,6 C 6,9 C 93 % 1013 hPa 0,0 l/m 20,7 km/h (4 Bft)
01.06.2006 08:26 20,6 C 6,9 C 93 % 1013 hPa 0,0 l/m 17,5 km/h (3 Bft)
01.06.2006 08:29 20,6 C 6,9 C 93 % 1013 hPa 0,0 l/m 16,2 km/h (3 Bft)
01.06.2006 08:32 20,6 C 6,9 C 93 % 1013 hPa 0,0 l/m 15,1 km/h (3 Bft)
01.06.2006 08:35 20,5 C 7,0 C 93 % 1013 hPa 0,0 l/m 15,5 km/h (3 Bft)
01.06.2006 08:38 20,6 C 7,0 C 93 % 1013 hPa 0,0 l/m 15,5 km/h (3 Bft)
01.06.2006 08:41 20,5 C 7,0 C 93 % 1013 hPa 0,0 l/m 16,6 km/h (3 Bft)
01.06.2006 08:44 20,6 C 7,1 C 92 % 1013 hPa 0,0 l/m 15,4 km/h (3 Bft)
01.06.2006 08:47 20,6 C 7,2 C 93 % 1013 hPa 0,0 l/m 16,8 km/h (3 Bft)
01.06.2006 08:50 20,6 C 7,2 C 92 % 1013 hPa 0,0 l/m 15,6 km/h (3 Bft)
01.06.2006 08:53 20,6 C 7,2 C 92 % 1013 hPa 0,0 l/m 15,3 km/h (3 Bft)
01.06.2006 08:56 20,6 C 7,2 C 92 % 1013 hPa 0,0 l/m 18,6 km/h (3 Bft)
01.06.2006 08:59 20,6 C 7,2 C 92 % 1013 hPa 0,0 l/m 14,5 km/h (3 Bft)
01.06.2006 09:02 20,6 C 7,2 C 92 % 1013 hPa 0,0 l/m 15,7 km/h (3 Bft)
01.06.2006 09:05 20,6 C 7,2 C 92 % 1013 hPa 0,0 l/m 11,9 km/h (2 Bft)
01.06.2006 09:08 20,6 C 7,2 C 92 % 1013 hPa 0,0 l/m 14,8 km/h (3 Bft)
01.06.2006 09:11 20,6 C 7,2 C 92 % 1013 hPa 0,0 l/m 13,5 km/h (3 Bft)
01.06.2006 09:14 20,6 C 7,3 C 92 % 1013 hPa 0,0 l/m 18,8 km/h (3 Bft)
01.06.2006 09:17 20,6 C 7,3 C 92 % 1013 hPa 0,0 l/m 15,8 km/h (3 Bft)
01.06.2006 09:20 20,6 C 7,4 C 92 % 1013 hPa 0,0 l/m 14,5 km/h (3 Bft)
01.06.2006 09:23 20,6 C 7,4 C 92 % 1013 hPa 0,0 l/m 14,8 km/h (3 Bft)
01.06.2006 09:26 20,7 C 7,4 C 92 % 1013 hPa 0,0 l/m 17,5 km/h (3 Bft)
01.06.2006 09:29 20,6 C 7,6 C 92 % 1013 hPa 0,0 l/m 16,5 km/h (3 Bft)
01.06.2006 09:32 20,6 C 7,5 C 92 % 1013 hPa 0,0 l/m 17,5 km/h (3 Bft)
01.06.2006 09:35 20,7 C 7,6 C 93 % 1013 hPa 0,0 l/m 14,5 km/h (3 Bft)
01.06.2006 09:38 20,6 C 7,6 C 92 % 1013 hPa 0,0 l/m 16,3 km/h (3 Bft)
01.06.2006 09:41 20,7 C 7,6 C 92 % 1013 hPa 0,0 l/m 18,3 km/h (3 Bft)
01.06.2006 09:44 20,7 C 7,7 C 93 % 1013 hPa 0,3 l/m 15,8 km/h (3 Bft)
01.06.2006 09:47 20,7 C 7,8 C 93 % 1013 hPa 0,0 l/m 15,2 km/h (3 Bft)
01.06.2006 09:50 20,7 C 7,8 C 92 % 1013 hPa 0,0 l/m 16,9 km/h (3 Bft)
01.06.2006 09:53 20,7 C 7,8 C 93 % 1013 hPa 0,0 l/m 17,8 km/h (3 Bft)
01.06.2006 09:56 20,7 C 7,8 C 93 % 1013 hPa 0,0 l/m 15,0 km/h (3 Bft)
01.06.2006 09:59 20,7 C 7,8 C 93 % 1013 hPa 0,3 l/m 13,9 km/h (3 Bft)
01.06.2006 10:02 20,7 C 7,8 C 93 % 1013 hPa 0,0 l/m 12,6 km/h (3 Bft)
01.06.2006 10:05 20,7 C 7,9 C 93 % 1013 hPa 0,0 l/m 12,0 km/h (2 Bft)
01.06.2006 10:08 20,8 C 8,0 C 93 % 1013 hPa 0,0 l/m 10,8 km/h (2 Bft)
01.06.2006 10:11 20,7 C 8,0 C 93 % 1013 hPa 0,0 l/m 10,0 km/h (2 Bft)
01.06.2006 10:14 20,7 C 8,0 C 93 % 1013 hPa 0,0 l/m 13,6 km/h (3 Bft)
01.06.2006 10:17 20,7 C 8,0 C 93 % 1013 hPa 0,3 l/m 12,7 km/h (3 Bft)
01.06.2006 10:20 20,7 C 7,9 C 93 % 1013 hPa 0,0 l/m 13,6 km/h (3 Bft)
01.06.2006 10:23 20,7 C 7,9 C 93 % 1013 hPa 0,0 l/m 13,3 km/h (3 Bft)
01.06.2006 10:26 20,7 C 7,8 C 93 % 1013 hPa 0,0 l/m 11,6 km/h (2 Bft)
01.06.2006 10:29 20,7 C 7,9 C 93 % 1013 hPa 0,0 l/m 12,0 km/h (2 Bft)
01.06.2006 10:32 20,7 C 7,9 C 93 % 1013 hPa 0,0 l/m 12,0 km/h (2 Bft)
01.06.2006 10:35 20,7 C 7,9 C 92 % 1013 hPa 0,0 l/m 13,6 km/h (3 Bft)
01.06.2006 10:38 20,7 C 7,9 C 93 % 1013 hPa 0,0 l/m 13,4 km/h (3 Bft)
01.06.2006 10:41 20,7 C 8,0 C 93 % 1013 hPa 0,0 l/m 11,8 km/h (2 Bft)
01.06.2006 10:44 20,7 C 8,0 C 93 % 1013 hPa 0,3 l/m 14,7 km/h (3 Bft)
01.06.2006 10:47 20,8 C 8,1 C 92 % 1013 hPa 0,0 l/m 13,5 km/h (3 Bft)
01.06.2006 10:50 20,7 C 8,0 C 92 % 1013 hPa 0,0 l/m 11,1 km/h (2 Bft)
01.06.2006 10:53 20,7 C 8,0 C 93 % 1013 hPa 0,0 l/m 14,2 km/h (3 Bft)
01.06.2006 10:56 20,7 C 8,0 C 92 % 1013 hPa 0,0 l/m 17,6 km/h (3 Bft)
01.06.2006 10:59 20,8 C 7,9 C 92 % 1013 hPa 0,0 l/m 21,4 km/h (4 Bft)
01.06.2006 11:02 20,7 C 7,8 C 91 % 1013 hPa 0,0 l/m 15,8 km/h (3 Bft)
01.06.2006 11:05 20,8 C 7,8 C 91 % 1013 hPa 0,0 l/m 18,8 km/h (3 Bft)
01.06.2006 11:08 20,7 C 7,8 C 91 % 1013 hPa 0,0 l/m 14,5 km/h (3 Bft)
01.06.2006 11:11 20,7 C 7,9 C 91 % 1013 hPa 0,0 l/m 14,5 km/h (3 Bft)
01.06.2006 11:14 20,7 C 7,9 C 90 % 1013 hPa 0,0 l/m 13,6 km/h (3 Bft)
01.06.2006 11:17 20,7 C 8,0 C 91 % 1013 hPa 0,0 l/m 15,3 km/h (3 Bft)
01.06.2006 11:20 20,7 C 7,9 C 89 % 1014 hPa 0,0 l/m 16,6 km/h (3 Bft)
01.06.2006 11:23 20,7 C 8,0 C 90 % 1014 hPa 0,0 l/m 14,0 km/h (3 Bft)
01.06.2006 11:26 20,7 C 7,9 C 90 % 1014 hPa 0,0 l/m 12,0 km/h (2 Bft)
01.06.2006 11:29 20,7 C 7,9 C 90 % 1014 hPa 0,0 l/m 12,8 km/h (3 Bft)
01.06.2006 11:32 20,7 C 8,1 C 91 % 1014 hPa 0,3 l/m 10,6 km/h (2 Bft)
01.06.2006 11:35 20,7 C 8,2 C 89 % 1014 hPa 0,0 l/m 13,1 km/h (3 Bft)
01.06.2006 11:38 20,7 C 8,3 C 89 % 1014 hPa 0,0 l/m 14,6 km/h (3 Bft)
01.06.2006 11:41 20,7 C 8,5 C 90 % 1013 hPa 0,0 l/m 14,9 km/h (3 Bft)
01.06.2006 11:44 20,7 C 8,5 C 90 % 1014 hPa 0,0 l/m 17,3 km/h (3 Bft)
01.06.2006 11:47 20,8 C 8,7 C 85 % 1013 hPa 0,0 l/m 12,8 km/h (3 Bft)
01.06.2006 11:50 20,8 C 8,8 C 85 % 1013 hPa 0,0 l/m 16,2 km/h (3 Bft)
01.06.2006 11:53 20,8 C 9,0 C 87 % 1013 hPa 0,0 l/m 13,9 km/h (3 Bft)
01.06.2006 11:56 20,7 C 9,1 C 85 % 1013 hPa 0,0 l/m 14,0 km/h (3 Bft)
01.06.2006 11:59 20,8 C 9,2 C 86 % 1013 hPa 0,0 l/m 15,4 km/h (3 Bft)
01.06.2006 12:02 20,8 C 9,2 C 85 % 1013 hPa 0,0 l/m 15,1 km/h (3 Bft)
01.06.2006 12:05 20,8 C 9,3 C 84 % 1013 hPa 0,0 l/m 13,0 km/h (3 Bft)
01.06.2006 12:08 20,8 C 9,3 C 84 % 1014 hPa 0,0 l/m 11,0 km/h (2 Bft)
01.06.2006 12:11 20,8 C 9,4 C 86 % 1014 hPa 0,0 l/m 20,9 km/h (4 Bft)
01.06.2006 12:14 20,8 C 9,3 C 84 % 1014 hPa 0,0 l/m 16,6 km/h (3 Bft)
01.06.2006 12:17 20,8 C 9,2 C 83 % 1013 hPa 0,0 l/m 15,8 km/h (3 Bft)
01.06.2006 12:20 20,8 C 9,2 C 83 % 1014 hPa 0,0 l/m 19,5 km/h (3 Bft)
01.06.2006 12:23 20,8 C 9,4 C 83 % 1014 hPa 0,0 l/m 16,3 km/h (3 Bft)
01.06.2006 12:26 20,8 C 9,3 C 86 % 1014 hPa 0,0 l/m 13,3 km/h (3 Bft)
01.06.2006 12:29 20,8 C 9,3 C 81 % 1014 hPa 0,0 l/m 13,3 km/h (3 Bft)
01.06.2006 12:32 20,8 C 9,2 C 84 % 1014 hPa 0,0 l/m 15,0 km/h (3 Bft)
01.06.2006 12:35 20,8 C 9,0 C 85 % 1014 hPa 0,0 l/m 14,9 km/h (3 Bft)
01.06.2006 12:38 20,8 C 8,9 C 86 % 1014 hPa 0,0 l/m 11,9 km/h (2 Bft)
01.06.2006 12:42 20,8 C 8,8 C 86 % 1014 hPa 0,0 l/m 14,8 km/h (3 Bft)
01.06.2006 12:45 20,8 C 8,8 C 86 % 1014 hPa 0,0 l/m 12,0 km/h (2 Bft)
01.06.2006 12:48 20,7 C 8,8 C 88 % 1014 hPa 0,0 l/m 12,4 km/h (3 Bft)
01.06.2006 12:51 20,7 C 8,8 C 88 % 1014 hPa 0,0 l/m 12,4 km/h (3 Bft)
01.06.2006 12:54 20,8 C 8,9 C 89 % 1014 hPa 0,0 l/m 15,0 km/h (3 Bft)
01.06.2006 12:57 20,8 C 9,1 C 89 % 1014 hPa 0,0 l/m 15,0 km/h (3 Bft)
01.06.2006 13:00 20,8 C 9,1 C 87 % 1013 hPa 0,0 l/m 13,1 km/h (3 Bft)
01.06.2006 13:03 20,8 C 9,3 C 88 % 1013 hPa 0,0 l/m 13,2 km/h (3 Bft)
01.06.2006 13:06 20,8 C 9,4 C 86 % 1013 hPa 0,0 l/m 12,9 km/h (3 Bft)
01.06.2006 13:09 20,8 C 9,4 C 86 % 1014 hPa 0,0 l/m 15,0 km/h (3 Bft)
01.06.2006 13:12 20,8 C 9,3 C 86 % 1014 hPa 0,0 l/m 13,1 km/h (3 Bft)
01.06.2006 13:15 20,8 C 9,5 C 87 % 1014 hPa 0,0 l/m 13,8 km/h (3 Bft)
01.06.2006 13:17 20,8 C 9,4 C 86 % 1014 hPa 0,0 l/m 17,6 km/h (3 Bft)
01.06.2006 13:20 20,8 C 9,3 C 87 % 1014 hPa 0,0 l/m 17,7 km/h (3 Bft)
01.06.2006 13:23 20,8 C 9,1 C 87 % 1014 hPa 0,0 l/m 17,3 km/h (3 Bft)
01.06.2006 13:26 20,8 C 9,1 C 87 % 1014 hPa 0,0 l/m 17,6 km/h (3 Bft)
01.06.2006 13:29 20,8 C 8,6 C 87 % 1014 hPa 0,0 l/m 27,1 km/h (4 Bft)
01.06.2006 13:32 20,8 C 8,5 C 87 % 1014 hPa 0,0 l/m 22,6 km/h (4 Bft)
01.06.2006 13:35 20,8 C 7,8 C 85 % 1014 hPa 0,0 l/m 21,8 km/h (4 Bft)
01.06.2006 13:38 20,8 C 7,2 C 86 % 1014 hPa 0,0 l/m 18,5 km/h (3 Bft)
01.06.2006 13:41 20,8 C 7,0 C 88 % 1014 hPa 0,0 l/m 11,0 km/h (2 Bft)
01.06.2006 13:44 20,8 C 6,8 C 88 % 1014 hPa 0,0 l/m 12,7 km/h (3 Bft)
01.06.2006 13:47 20,8 C 6,8 C 89 % 1014 hPa 0,0 l/m 15,4 km/h (3 Bft)
01.06.2006 13:50 20,8 C 6,7 C 89 % 1014 hPa 0,0 l/m 12,5 km/h (3 Bft)
01.06.2006 13:53 20,8 C 6,7 C 90 % 1014 hPa 0,0 l/m 9,0 km/h (2 Bft)
01.06.2006 13:56 20,8 C 6,7 C 89 % 1014 hPa 0,0 l/m 6,5 km/h (2 Bft)
01.06.2006 13:59 20,8 C 6,8 C 90 % 1014 hPa 0,0 l/m 5,9 km/h (2 Bft)
01.06.2006 14:02 20,8 C 6,8 C 89 % 1014 hPa 0,0 l/m 5,4 km/h (1 Bft)
01.06.2006 14:05 20,8 C 6,8 C 89 % 1014 hPa 0,7 l/m 3,6 km/h (1 Bft)
01.06.2006 14:08 20,8 C 6,8 C 89 % 1014 hPa 0,0 l/m 3,6 km/h (1 Bft)
01.06.2006 14:11 20,8 C 6,9 C 89 % 1014 hPa 0,0 l/m 2,6 km/h (1 Bft)
01.06.2006 14:14 20,9 C 7,1 C 89 % 1014 hPa 0,0 l/m 0,8 km/h (0 Bft)
01.06.2006 14:17 20,9 C 7,2 C 90 % 1014 hPa 0,0 l/m 3,5 km/h (1 Bft)
01.06.2006 14:20 20,9 C 7,5 C 88 % 1014 hPa 0,0 l/m 0,3 km/h (0 Bft)
01.06.2006 14:23 21,0 C 7,6 C 89 % 1014 hPa 0,0 l/m 3,8 km/h (1 Bft)
01.06.2006 14:26 21,0 C 7,8 C 86 % 1014 hPa 0,0 l/m 5,4 km/h (1 Bft)
01.06.2006 14:29 21,0 C 8,0 C 88 % 1014 hPa 0,0 l/m 5,4 km/h (1 Bft)
01.06.2006 14:32 21,0 C 8,3 C 85 % 1014 hPa 0,0 l/m 7,1 km/h (2 Bft)
01.06.2006 14:35 21,0 C 8,4 C 87 % 1014 hPa 0,0 l/m 7,1 km/h (2 Bft)
01.06.2006 14:38 21,0 C 8,5 C 86 % 1014 hPa 0,0 l/m 8,7 km/h (2 Bft)
01.06.2006 14:41 21,0 C 8,5 C 86 % 1014 hPa 0,0 l/m 9,9 km/h (2 Bft)
01.06.2006 14:44 21,0 C 8,8 C 87 % 1014 hPa 0,0 l/m 7,6 km/h (2 Bft)
01.06.2006 14:47 21,0 C 8,9 C 87 % 1014 hPa 0,0 l/m 8,9 km/h (2 Bft)
01.06.2006 14:50 21,0 C 9,0 C 87 % 1014 hPa 0,0 l/m 7,9 km/h (2 Bft)
01.06.2006 14:53 21,1 C 9,2 C 87 % 1014 hPa 0,0 l/m 0,3 km/h (0 Bft)
01.06.2006 14:56 21,2 C 9,4 C 86 % 1014 hPa 0,0 l/m 7,3 km/h (2 Bft)
01.06.2006 14:59 21,2 C 9,3 C 84 % 1014 hPa 0,0 l/m 8,9 km/h (2 Bft)
01.06.2006 15:02 21,2 C 9,3 C 86 % 1014 hPa 0,0 l/m 11,1 km/h (2 Bft)
01.06.2006 15:05 21,2 C 9,0 C 85 % 1014 hPa 0,0 l/m 16,0 km/h (3 Bft)
01.06.2006 15:08 21,3 C 8,7 C 87 % 1014 hPa 0,0 l/m 16,0 km/h (3 Bft)
01.06.2006 15:11 21,3 C 8,3 C 88 % 1014 hPa 0,0 l/m 17,8 km/h (3 Bft)
01.06.2006 15:14 21,4 C 8,1 C 87 % 1014 hPa 0,0 l/m 18,5 km/h (3 Bft)
01.06.2006 15:17 21,4 C 8,0 C 89 % 1014 hPa 0,0 l/m 19,7 km/h (3 Bft)
01.06.2006 15:20 21,4 C 7,6 C 87 % 1014 hPa 0,0 l/m 16,0 km/h (3 Bft)
01.06.2006 15:23 21,5 C 7,6 C 88 % 1014 hPa 0,0 l/m 12,8 km/h (3 Bft)
01.06.2006 15:26 21,5 C 7,6 C 88 % 1014 hPa 0,0 l/m 8,2 km/h (2 Bft)
01.06.2006 15:29 21,4 C 7,6 C 88 % 1014 hPa 0,0 l/m 5,4 km/h (1 Bft)
01.06.2006 15:32 21,4 C 7,5 C 88 % 1014 hPa 0,7 l/m 6,5 km/h (2 Bft)
01.06.2006 15:35 21,4 C 7,6 C 88 % 1014 hPa 0,0 l/m 4,6 km/h (1 Bft)
01.06.2006 15:38 21,5 C 7,8 C 88 % 1014 hPa 0,0 l/m 8,1 km/h (2 Bft)
01.06.2006 15:41 21,5 C 8,0 C 89 % 1014 hPa 0,0 l/m 5,9 km/h (2 Bft)
01.06.2006 15:44 21,5 C 8,0 C 89 % 1014 hPa 0,0 l/m 6,3 km/h (2 Bft)
01.06.2006 15:47 21,5 C 8,2 C 89 % 1014 hPa 0,0 l/m 5,6 km/h (1 Bft)
01.06.2006 15:50 21,5 C 8,2 C 89 % 1014 hPa 0,0 l/m 8,0 km/h (2 Bft)
01.06.2006 15:53 21,4 C 8,3 C 87 % 1014 hPa 0,0 l/m 9,5 km/h (2 Bft)
01.06.2006 15:56 21,5 C 8,3 C 87 % 1014 hPa 0,0 l/m 10,1 km/h (2 Bft)
01.06.2006 15:59 21,5 C 8,2 C 88 % 1014 hPa 0,0 l/m 12,6 km/h (3 Bft)
01.06.2006 16:02 21,4 C 8,2 C 87 % 1014 hPa 0,0 l/m 9,8 km/h (2 Bft)
01.06.2006 16:05 21,0 C 8,1 C 87 % 1014 hPa 0,0 l/m 12,9 km/h (3 Bft)
01.06.2006 16:08 20,7 C 8,2 C 86 % 1014 hPa 0,0 l/m 10,8 km/h (2 Bft)
01.06.2006 16:11 20,4 C 8,2 C 87 % 1014 hPa 0,0 l/m 9,4 km/h (2 Bft)
01.06.2006 16:14 20,3 C 8,2 C 87 % 1014 hPa 0,0 l/m 10,0 km/h (2 Bft)
01.06.2006 16:17 20,4 C 8,2 C 87 % 1014 hPa 0,0 l/m 11,8 km/h (2 Bft)
01.06.2006 16:20 20,5 C 8,2 C 87 % 1014 hPa 0,3 l/m 8,1 km/h (2 Bft)
01.06.2006 16:23 20,6 C 8,1 C 87 % 1014 hPa 0,0 l/m 10,1 km/h (2 Bft)
01.06.2006 16:26 20,7 C 8,1 C 89 % 1014 hPa 0,0 l/m 7,4 km/h (2 Bft)
01.06.2006 16:29 20,8 C 8,2 C 88 % 1014 hPa 0,0 l/m 7,9 km/h (2 Bft)
01.06.2006 16:32 20,9 C 8,2 C 89 % 1014 hPa 0,0 l/m 7,1 km/h (2 Bft)
01.06.2006 16:35 20,9 C 8,2 C 89 % 1014 hPa 0,0 l/m 7,0 km/h (2 Bft)
01.06.2006 16:38 20,9 C 8,2 C 89 % 1014 hPa 0,0 l/m 6,0 km/h (2 Bft)
01.06.2006 16:41 20,9 C 8,3 C 89 % 1014 hPa 0,0 l/m 7,1 km/h (2 Bft)
01.06.2006 16:44 20,9 C 8,3 C 89 % 1014 hPa 0,0 l/m 6,7 km/h (2 Bft)
01.06.2006 16:47 20,9 C 8,3 C 89 % 1014 hPa 0,0 l/m 4,9 km/h (1 Bft)
01.06.2006 16:50 20,8 C 8,3 C 89 % 1014 hPa 0,0 l/m 5,1 km/h (1 Bft)
01.06.2006 16:53 20,9 C 8,3 C 89 % 1014 hPa 0,0 l/m 7,1 km/h (2 Bft)
01.06.2006 16:56 20,8 C 8,5 C 85 % 1014 hPa 0,0 l/m 8,1 km/h (2 Bft)
01.06.2006 16:59 20,9 C 8,6 C 86 % 1013 hPa 0,0 l/m 11,0 km/h (2 Bft)
01.06.2006 17:02 21,0 C 8,7 C 83 % 1013 hPa 0,0 l/m 11,1 km/h (2 Bft)
01.06.2006 17:05 21,0 C 8,7 C 83 % 1013 hPa 0,0 l/m 6,4 km/h (2 Bft)
01.06.2006 17:08 21,0 C 8,8 C 84 % 1013 hPa 0,0 l/m 7,7 km/h (2 Bft)
01.06.2006 17:11 21,1 C 8,7 C 83 % 1013 hPa 0,0 l/m 10,6 km/h (2 Bft)
01.06.2006 17:14 21,0 C 8,8 C 84 % 1013 hPa 0,0 l/m 8,1 km/h (2 Bft)
01.06.2006 17:17 20,9 C 8,9 C 84 % 1013 hPa 0,0 l/m 10,5 km/h (2 Bft)
01.06.2006 17:20 20,9 C 8,9 C 84 % 1013 hPa 0,0 l/m 16,9 km/h (3 Bft)
01.06.2006 17:23 20,9 C 9,0 C 82 % 1013 hPa 0,0 l/m 12,5 km/h (3 Bft)
01.06.2006 17:26 20,9 C 9,1 C 84 % 1013 hPa 0,0 l/m 11,5 km/h (2 Bft)
01.06.2006 17:29 20,9 C 9,2 C 86 % 1013 hPa 0,0 l/m 11,5 km/h (2 Bft)
01.06.2006 17:32 20,9 C 9,4 C 86 % 1013 hPa 0,0 l/m 7,5 km/h (2 Bft)
01.06.2006 17:35 20,9 C 9,4 C 86 % 1013 hPa 0,0 l/m 8,3 km/h (2 Bft)
01.06.2006 17:38 21,0 C 9,5 C 86 % 1014 hPa 0,0 l/m 8,1 km/h (2 Bft)
01.06.2006 17:41 21,0 C 9,5 C 86 % 1014 hPa 0,0 l/m 8,2 km/h (2 Bft)
01.06.2006 17:44 21,1 C 9,6 C 85 % 1014 hPa 0,0 l/m 16,4 km/h (3 Bft)
01.06.2006 17:47 21,1 C 9,5 C 84 % 1014 hPa 0,0 l/m 12,7 km/h (3 Bft)
01.06.2006 17:50 21,0 C 9,4 C 86 % 1014 hPa 0,0 l/m 11,5 km/h (2 Bft)
01.06.2006 17:53 20,9 C 9,4 C 86 % 1014 hPa 0,0 l/m 12,0 km/h (2 Bft)
01.06.2006 17:56 20,8 C 9,3 C 85 % 1014 hPa 0,0 l/m 13,0 km/h (3 Bft)
01.06.2006 17:59 20,8 C 9,2 C 85 % 1014 hPa 0,0 l/m 10,4 km/h (2 Bft)
01.06.2006 18:02 20,8 C 9,2 C 84 % 1014 hPa 0,0 l/m 11,5 km/h (2 Bft)
01.06.2006 18:05 20,8 C 9,2 C 84 % 1014 hPa 0,0 l/m 11,6 km/h (2 Bft)
01.06.2006 18:08 20,9 C 9,2 C 84 % 1014 hPa 0,0 l/m 10,1 km/h (2 Bft)
01.06.2006 18:11 21,0 C 9,1 C 85 % 1014 hPa 0,0 l/m 10,7 km/h (2 Bft)
01.06.2006 18:14 21,0 C 9,1 C 86 % 1014 hPa 0,0 l/m 10,7 km/h (2 Bft)
01.06.2006 18:17 21,2 C 9,1 C 85 % 1014 hPa 0,0 l/m 12,8 km/h (3 Bft)
01.06.2006 18:20 21,2 C 9,1 C 84 % 1014 hPa 0,0 l/m 12,6 km/h (3 Bft)
01.06.2006 18:23 21,2 C 9,2 C 85 % 1014 hPa 0,0 l/m 12,6 km/h (3 Bft)
01.06.2006 18:26 21,2 C 9,2 C 85 % 1014 hPa 0,0 l/m 12,4 km/h (3 Bft)
01.06.2006 18:29 21,2 C 9,2 C 85 % 1013 hPa 0,0 l/m 13,1 km/h (3 Bft)
01.06.2006 18:32 21,1 C 9,2 C 85 % 1014 hPa 0,0 l/m 12,6 km/h (3 Bft)
01.06.2006 18:35 21,1 C 9,4 C 87 % 1014 hPa 0,0 l/m 9,6 km/h (2 Bft)
01.06.2006 18:38 21,0 C 9,4 C 84 % 1014 hPa 0,0 l/m 10,3 km/h (2 Bft)
01.06.2006 18:41 21,0 C 9,4 C 83 % 1014 hPa 0,0 l/m 14,6 km/h (3 Bft)
01.06.2006 18:44 20,9 C 9,5 C 81 % 1014 hPa 0,0 l/m 13,8 km/h (3 Bft)
01.06.2006 18:47 20,8 C 9,4 C 81 % 1014 hPa 0,0 l/m 13,5 km/h (3 Bft)
01.06.2006 18:50 20,4 C 9,5 C 82 % 1014 hPa 0,0 l/m 9,0 km/h (2 Bft)
01.06.2006 18:53 20,0 C 9,6 C 82 % 1014 hPa 0,0 l/m 9,2 km/h (2 Bft)
01.06.2006 18:56 19,7 C 9,6 C 81 % 1014 hPa 0,0 l/m 8,9 km/h (2 Bft)
01.06.2006 18:59 19,5 C 9,6 C 79 % 1014 hPa 0,0 l/m 9,1 km/h (2 Bft)
01.06.2006 19:02 19,2 C 9,5 C 76 % 1014 hPa 0,0 l/m 10,6 km/h (2 Bft)
01.06.2006 19:05 19,1 C 9,4 C 76 % 1014 hPa 0,0 l/m 10,2 km/h (2 Bft)
01.06.2006 19:08 18,9 C 9,3 C 77 % 1014 hPa 0,0 l/m 12,3 km/h (3 Bft)
01.06.2006 19:11 18,8 C 9,2 C 80 % 1014 hPa 0,0 l/m 12,6 km/h (3 Bft)
01.06.2006 19:14 18,7 C 9,2 C 81 % 1014 hPa 0,0 l/m 8,2 km/h (2 Bft)
01.06.2006 19:17 18,6 C 9,2 C 81 % 1014 hPa 0,0 l/m 10,5 km/h (2 Bft)
01.06.2006 19:20 18,5 C 9,2 C 81 % 1014 hPa 0,0 l/m 10,7 km/h (2 Bft)
01.06.2006 19:23 18,4 C 9,1 C 79 % 1014 hPa 0,0 l/m 12,1 km/h (2 Bft)
01.06.2006 19:26 18,3 C 9,1 C 80 % 1014 hPa 0,0 l/m 11,6 km/h (2 Bft)
01.06.2006 19:29 18,2 C 9,0 C 80 % 1014 hPa 0,0 l/m 14,8 km/h (3 Bft)
01.06.2006 19:32 18,2 C 8,9 C 80 % 1014 hPa 0,0 l/m 9,2 km/h (2 Bft)
01.06.2006 19:35 18,1 C 8,9 C 81 % 1014 hPa 0,0 l/m 12,3 km/h (3 Bft)
01.06.2006 19:38 18,0 C 8,9 C 81 % 1014 hPa 0,0 l/m 12,7 km/h (3 Bft)
01.06.2006 19:41 18,0 C 8,9 C 81 % 1014 hPa 0,0 l/m 7,0 km/h (2 Bft)
01.06.2006 19:44 17,9 C 9,9 C 91 % 1014 hPa 0,0 l/m 12,7 km/h (3 Bft)
01.06.2006 19:47 17,8 C 9,9 C 91 % 1014 hPa 0,0 l/m 10,5 km/h (2 Bft)
01.06.2006 19:50 17,8 C 10,2 C 74 % 1014 hPa 0,0 l/m 13,6 km/h (3 Bft)
01.06.2006 19:53 17,7 C 10,2 C 74 % 1014 hPa 0,0 l/m 9,4 km/h (2 Bft)
01.06.2006 19:56 17,6 C 9,9 C 77 % 1014 hPa 0,0 l/m 7,4 km/h (2 Bft)
01.06.2006 20:00 17,6 C 10,0 C 76 % 1015 hPa 0,0 l/m 8,9 km/h (2 Bft)
01.06.2006 20:03 17,4 C 10,2 C 74 % 1015 hPa 0,0 l/m 7,8 km/h (2 Bft)
01.06.2006 20:06 17,4 C 10,0 C 73 % 1015 hPa 0,0 l/m 8,2 km/h (2 Bft)
01.06.2006 20:09 17,3 C 9,9 C 75 % 1015 hPa 0,0 l/m 6,5 km/h (2 Bft)
01.06.2006 20:12 17,2 C 9,9 C 74 % 1015 hPa 0,0 l/m 6,1 km/h (2 Bft)
01.06.2006 20:15 17,2 C 9,6 C 75 % 1015 hPa 0,0 l/m 4,4 km/h (1 Bft)
01.06.2006 20:18 17,2 C 9,4 C 76 % 1015 hPa 0,0 l/m 4,1 km/h (1 Bft)
01.06.2006 20:21 17,4 C 8,9 C 78 % 1015 hPa 0,0 l/m 6,3 km/h (2 Bft)
01.06.2006 20:24 17,6 C 8,6 C 79 % 1015 hPa 0,0 l/m 3,5 km/h (1 Bft)
01.06.2006 20:27 18,2 C 8,4 C 80 % 1015 hPa 0,0 l/m 1,0 km/h (0 Bft)
01.06.2006 20:30 18,4 C 8,2 C 80 % 1015 hPa 0,0 l/m 4,6 km/h (1 Bft)
01.06.2006 20:33 18,6 C 8,2 C 82 % 1015 hPa 0,0 l/m 0,7 km/h (0 Bft)
01.06.2006 20:35 18,7 C 8,1 C 83 % 1015 hPa 0,0 l/m 1,0 km/h (0 Bft)
01.06.2006 20:38 18,9 C 8,1 C 84 % 1015 hPa 0,0 l/m 0,2 km/h (0 Bft)
01.06.2006 20:41 19,0 C 8,0 C 85 % 1015 hPa 0,0 l/m 2,5 km/h (1 Bft)
01.06.2006 20:44 19,1 C 7,9 C 85 % 1015 hPa 0,0 l/m 3,6 km/h (1 Bft)
01.06.2006 20:47 19,2 C 7,9 C 86 % 1015 hPa 0,0 l/m 3,0 km/h (1 Bft)
01.06.2006 20:50 19,3 C 7,8 C 86 % 1015 hPa 0,0 l/m 3,6 km/h (1 Bft)
01.06.2006 20:53 19,4 C 7,8 C 88 % 1015 hPa 0,0 l/m 2,8 km/h (1 Bft)
01.06.2006 20:56 19,4 C 7,7 C 88 % 1015 hPa 0,0 l/m 2,1 km/h (1 Bft)
01.06.2006 20:59 19,5 C 7,7 C 88 % 1015 hPa 0,0 l/m 0,8 km/h (0 Bft)
01.06.2006 21:02 19,5 C 7,6 C 88 % 1015 hPa 0,0 l/m 3,9 km/h (1 Bft)
01.06.2006 21:05 19,6 C 7,7 C 88 % 1015 hPa 0,0 l/m 5,7 km/h (1 Bft)
01.06.2006 21:08 19,6 C 7,6 C 87 % 1015 hPa 0,0 l/m 4,5 km/h (1 Bft)
01.06.2006 21:11 19,6 C 7,6 C 87 % 1015 hPa 0,0 l/m 5,2 km/h (1 Bft)
01.06.2006 21:14 19,6 C 7,6 C 87 % 1015 hPa 0,0 l/m 4,3 km/h (1 Bft)
01.06.2006 21:17 19,7 C 7,4 C 88 % 1015 hPa 0,0 l/m 3,4 km/h (1 Bft)
01.06.2006 21:20 19,7 C 7,4 C 88 % 1015 hPa 0,0 l/m 3,3 km/h (1 Bft)
01.06.2006 21:23 19,8 C 7,4 C 88 % 1015 hPa 0,0 l/m 4,8 km/h (1 Bft)
01.06.2006 21:26 19,8 C 7,3 C 87 % 1015 hPa 0,0 l/m 2,7 km/h (1 Bft)
01.06.2006 21:29 19,9 C 7,3 C 87 % 1015 hPa 0,0 l/m 2,6 km/h (1 Bft)
01.06.2006 21:32 19,8 C 7,2 C 87 % 1015 hPa 0,0 l/m 4,9 km/h (1 Bft)
01.06.2006 21:35 19,9 C 7,2 C 87 % 1015 hPa 0,0 l/m 3,3 km/h (1 Bft)
01.06.2006 21:38 19,9 C 7,2 C 87 % 1015 hPa 0,0 l/m 2,1 km/h (1 Bft)
01.06.2006 21:41 19,8 C 7,1 C 87 % 1016 hPa 0,0 l/m 5,6 km/h (1 Bft)
01.06.2006 21:44 19,8 C 7,0 C 87 % 1016 hPa 0,0 l/m 3,8 km/h (1 Bft)
01.06.2006 21:47 19,8 C 7,0 C 88 % 1016 hPa 0,0 l/m 3,8 km/h (1 Bft)
01.06.2006 21:50 19,8 C 7,0 C 88 % 1016 hPa 0,0 l/m 4,7 km/h (1 Bft)
01.06.2006 21:53 19,8 C 7,0 C 87 % 1016 hPa 0,0 l/m 6,2 km/h (2 Bft)
01.06.2006 21:56 19,8 C 7,0 C 87 % 1016 hPa 0,0 l/m 5,1 km/h (1 Bft)
01.06.2006 21:59 19,8 C 7,0 C 86 % 1016 hPa 0,0 l/m 3,3 km/h (1 Bft)
01.06.2006 22:02 19,7 C 6,9 C 86 % 1016 hPa 0,0 l/m 4,0 km/h (1 Bft)
01.06.2006 22:05 19,8 C 6,8 C 86 % 1016 hPa 0,0 l/m 1,0 km/h (0 Bft)
01.06.2006 22:08 19,8 C 6,8 C 86 % 1016 hPa 0,0 l/m 0,4 km/h (0 Bft)
01.06.2006 22:11 19,8 C 6,8 C 86 % 1016 hPa 0,0 l/m 0,1 km/h (0 Bft)
01.06.2006 22:14 19,8 C 6,6 C 86 % 1016 hPa 0,0 l/m 0,1 km/h (0 Bft)
01.06.2006 22:17 19,8 C 6,6 C 87 % 1016 hPa 0,0 l/m 0,1 km/h (0 Bft)
01.06.2006 22:20 19,8 C 6,6 C 87 % 1016 hPa 0,0 l/m 3,9 km/h (1 Bft)
01.06.2006 22:23 19,7 C 6,6 C 86 % 1016 hPa 0,0 l/m 0,5 km/h (0 Bft)
01.06.2006 22:26 19,7 C 6,5 C 87 % 1016 hPa 0,0 l/m 0,3 km/h (0 Bft)
01.06.2006 22:29 19,8 C 6,5 C 87 % 1016 hPa 0,0 l/m 0,3 km/h (0 Bft)
01.06.2006 22:32 19,8 C 6,6 C 87 % 1016 hPa 0,0 l/m 0,3 km/h (0 Bft)
01.06.2006 22:35 19,8 C 6,6 C 87 % 1016 hPa 0,0 l/m 0,0 km/h (0 Bft)
01.06.2006 22:38 19,8 C 6,5 C 86 % 1016 hPa 0,0 l/m 0,0 km/h (0 Bft)
01.06.2006 22:41 19,7 C 6,5 C 86 % 1016 hPa 0,0 l/m 0,0 km/h (0 Bft)
01.06.2006 22:44 19,8 C 6,5 C 87 % 1016 hPa 0,0 l/m 0,0 km/h (0 Bft)
01.06.2006 22:47 19,8 C 6,5 C 85 % 1016 hPa 0,0 l/m 3,1 km/h (1 Bft)
01.06.2006 22:50 19,8 C 6,4 C 85 % 1016 hPa 0,0 l/m 0,9 km/h (0 Bft)
01.06.2006 22:53 19,8 C 6,4 C 86 % 1016 hPa 0,0 l/m 1,6 km/h (1 Bft)
01.06.2006 22:56 19,8 C 6,5 C 87 % 1016 hPa 0,0 l/m 0,4 km/h (0 Bft)
01.06.2006 22:59 19,8 C 6,4 C 86 % 1016 hPa 0,0 l/m 3,4 km/h (1 Bft)
01.06.2006 23:02 19,8 C 6,4 C 87 % 1016 hPa 0,0 l/m 3,6 km/h (1 Bft)
01.06.2006 23:05 19,8 C 6,4 C 87 % 1016 hPa 0,0 l/m 6,8 km/h (2 Bft)
01.06.2006 23:08 19,8 C 6,4 C 87 % 1017 hPa 0,0 l/m 8,5 km/h (2 Bft)
01.06.2006 23:11 19,8 C 6,4 C 86 % 1017 hPa 0,0 l/m 6,1 km/h (2 Bft)
01.06.2006 23:14 19,8 C 6,3 C 86 % 1017 hPa 0,0 l/m 4,6 km/h (1 Bft)
01.06.2006 23:17 19,8 C 6,3 C 87 % 1017 hPa 0,0 l/m 4,2 km/h (1 Bft)
01.06.2006 23:20 19,8 C 6,2 C 87 % 1017 hPa 0,0 l/m 3,8 km/h (1 Bft)
01.06.2006 23:23 19,8 C 6,1 C 88 % 1017 hPa 0,0 l/m 7,2 km/h (2 Bft)
01.06.2006 23:26 19,8 C 6,1 C 88 % 1017 hPa 0,0 l/m 10,0 km/h (2 Bft)
01.06.2006 23:29 19,8 C 6,1 C 88 % 1017 hPa 0,0 l/m 7,7 km/h (2 Bft)
01.06.2006 23:32 19,8 C 6,0 C 89 % 1017 hPa 0,0 l/m 6,5 km/h (2 Bft)
01.06.2006 23:35 19,8 C 5,9 C 89 % 1017 hPa 0,0 l/m 7,4 km/h (2 Bft)
01.06.2006 23:38 19,8 C 5,8 C 90 % 1017 hPa 0,0 l/m 7,4 km/h (2 Bft)
01.06.2006 23:41 19,8 C 5,8 C 90 % 1017 hPa 0,0 l/m 7,3 km/h (2 Bft)
01.06.2006 23:44 19,8 C 5,7 C 90 % 1017 hPa 0,0 l/m 3,6 km/h (1 Bft)
01.06.2006 23:47 19,8 C 5,6 C 90 % 1017 hPa 0,0 l/m 9,2 km/h (2 Bft)
01.06.2006 23:50 19,8 C 5,6 C 90 % 1017 hPa 0,0 l/m 5,3 km/h (1 Bft)
01.06.2006 23:53 19,8 C 5,6 C 91 % 1017 hPa 0,0 l/m 5,9 km/h (2 Bft)
01.06.2006 23:56 19,8 C 5,6 C 91 % 1017 hPa 0,0 l/m 4,3 km/h (1 Bft)
01.06.2006 23:59 19,8 C 5,6 C 91 % 1017 hPa 0,0 l/m 1,1 km/h (1 Bft)
_ Min-Zeit 20:12 23:47 20:06 00:31 - 22:35
Minimum _ 17,2 C 5,6 C 73 % 1012 hPa - 0,0 km/h (0 Bft)
_ Max-Zeit 15:23 19:50 06:01 23:08 03:38 13:29
Maximum _ 21,5 C 10,2 C 95 % 1017 hPa 1,4 l/m 27,1 km/h
W-SW (4 Bft)
Durchschnitt _ 20,2 C 7,6 C 89 % 1014 hPa #10,3 l/m 11,6 km/h (2 Bft)